Погода в Кирове

Погода в Кирове : погода сейчас, прогноз погоды и архив. Всё, что Вы хотите узнать о погоде в Кирове!

Хотите узнать прогноз погоды в Кирове? Тогда Вам сюда: Погода в Кирове

Поиск расширенной информации на нашем сайте:

Другие новости

Новости СМИ2

Главная страница сайта

Новости сайта

03.07.2017

Напоминаем, что на нашем специализированном сайте Метеоцентр.Азия вы можете получить высокодетализированные автоматические прогнозы погоды по пунктам России, СНГ и мира в авиационном формате (включающие направление и скорость ветра, видимость, явления погоды, количество и форму облачности, нижнюю и верхнюю границу облачности).


Погода в Кирове - сегодня

Время (UTC), дата Ветер
(°,м/с) 
Видим.   Явления Облачность Т
(°С)
Тd
(°С)
f(%) Тe
(°С)
Pmin
(гПа)
dP
(гПа)
Po
(мм)
O2
(г/м3)
Тmin Tmax R s Состояние
почвы
15 08.06.18 220 (ЮЗ) 2-6{09}  10 км  слаб. ливневой дождь  10/10 300 м кучево-дожд. 
[Cb cap]
+9.5 +8.6 94 +10  1002.5  -2.6  738  286    +11     
03 09.06.18 280 (З) 3-7{08}  20000 м    10/10 300 м кучево-дожд. 
[Cb calv]
+6.1 +4.7 91 +5  998.6  -0.5  735  289  +5.6    0.7    мокрая 
15 09.06.18 300 (СЗ) 2-4{08}  10 км  слаб. ливневой дождь  10/10 300 м кучево-дожд. 
[Cb cap]
+8 +7 93 +8  1002.6  0.8  738  288    +8.2     
03 10.06.18 310 (СЗ) 2-4{05}  20000 м    10/10 300 м кучево-дожд. 
[Cb calv]
+6.6 +5.2 91 +6  1005.4  1.1  740  290  +5.6      мокрая 
15 10.06.18 320 (СЗ) 1-3{08}  20000 м  {ливн. осадки}  9/5 300 м кучево-дожд., средняя, верхняя 
[Cb calv|Ac trans|Ci]
+8.2 +2.7 68 +9  1006.6  0.4  741  289    +11.8  0.8     
03 11.06.18 270 (З) 1-3{03}  20000 м    9/8 600 м кучево-дожд., средняя 
[Cb calv|Ac trans]
+6.2 +2.3 76 +7  1009  0.7  742  292  +1.9        влажная 
15 11.06.18 190 (Ю) 1-2{08}  20000 м  {ливн. осадки}  8/5 300 м кучево-дожд., средняя, верхняя 
[Cb calv|Ac trans|Cc]
+10.8 +7.3 79 +12  1008.4  0.6  742  286    +14.1     
03 12.06.18 220 (ЮЗ) 1-3{03}  20000 м    10/10 600 м 
[Sc]
+8.2 +6.2 87 +9  1007.3  -0.5  741  289  +6.2      влажная 
15 12.06.18 220 (ЮЗ) 2-6{08}  4000 м  ливневой дождь  10/10 600 м кучево-дожд. 
[Cb cap]
+15 +12.3 84 +21  1002.1  -1.4  738  279    +18.5  0.7     
03 13.06.18 180 (Ю) 2-5{06}  20000 м  {ливн. осадки}  10/8 600 м кучево-дожд., средняя 
[Cb calv|As trans]
+12.7 +11.5 92 +17  995.2  -2.7  733  280  +12.1      мокрая 
15 13.06.18 310 (СЗ) 1-4{07}  20000 м  в посл. час ливневой дождь  10/10 300 м кучево-дожд. 
[Cb cap]
+13.6 +13.2 97 +21  997.1  2.1  734  279    +18.9  10     
03 14.06.18 310 (СЗ) 2-5{06}  20000 м  в посл. час ливневой дождь  10/10 300 м кучево-дожд. 
[Cb cap]
+8.4 +6.4 87 +8  1006.9  2.2  741  289  +8    0.1    мокрая 
15 14.06.18 300 (СЗ) 2-6{09}  20000 м    8/6 300 м кучево-дожд., средняя 
[Cb calv|Ac trans]
+12.8 +3 51 +13  1012.5  0.9  745  286    +12.9  0.7     
21 14.06.18 280 (З) 1-2{03}  20000 м    ясно 
+6 +3.4 83 +7  1015.2  747  294           
00 15.06.18 310 (СЗ) 1-2{03}  20000 м    ясно 
+4 +1.7 85 +5  1016.2  0.8  747  297           
03 15.06.18 310 (СЗ) 1-2{03}  20000 м    8/0 кучево-дожд. 
[Cb calv]
+5.8 +2.9 82 +7  1016.9  0.9  748  295  +3.9        влажная 
15 15.06.18 310 (СЗ) 1-6{07}  20000 м    8/5 1000 м верхняя 
[Sc|Cs]
+14.3 +0.6 39 +16  1016.1  748  286    +14.5       
21 15.06.18 300 (СЗ) 1-3{03}  20000 м    ясно 
+8.8 +1.3 59 +10  1016.8  0.4  748  292           
03 16.06.18 310 (СЗ) 1-2{03}  20000 м    3/0 верхняя 
[Ci]
+9 +2.7 65 +10  1017.8  0.7  749  292  +6        сухая 
15 16.06.18 350 (С) 3-7{08}  20000 м    3/1 600 м верхняя 
[Sc|Ci fib]
+20 +2.7 32 +20  1016.1  -0.4  748  280    +20       
03 17.06.18 320 (СЗ) 1-2{03}  20000 м    ясно 
+13.6 +5.3 57 +15  1016.7  748  286  +8.5        сухая 
18 17.06.18 тихо () -0{07}  20000 м    ясно 
+19.2 +7.1 45 +19  1013.9  0.1  747  280           
03 18.06.18 310 (СЗ) 1-2{02}  20000 м    4/0 верхняя 
[Ci fib]
+16 +8.4 61 +17  1014.1  -0.1  747  283  +9.3        сухая 
09 18.06.18 330 (СЗ) 3-9{09}  20000 м    ясно 
+24.8 +2.1 23 +25  1011.8  -1  745  275           
15 18.06.18 330 (СЗ) 2-4{08}  20000 м    1/1 1000 м 
[Cu med, cong]
+26.3 +8.1 32 +26  1010.1  -0.9  744  272    +26.5       
Время (UTC), дата Ветер
(°,м/с) 
Видим.   Явления Облачность Т
(°С)
Тd
(°С)
f(%) Тe
(°С)
Pmin
(гПа)
dP
(гПа)
Po
(мм)
O2
(г/м3)
Тmin Tmax R s Состояние
почвы

Для получения пояснительной информации подведите курсор к названию столбца.

ПОГОДА в Кирове - архив

Всё, что Вы хотите узнать о погоде в Кирове - удобно и подробно!

Выберите нужную дату (начиная с 1 января 2015* года) и нажмите кнопку "Найти".
Будут отображены архивные сводки погоды по пункту Киров, начиная с указанной даты.


Отображать данные в формате CSV (для использования в таблицах Excel)


Внимание! Наш архив погоды предназначен исключительно для личного некоммерческого использования в познавательных целях. Если Вам необходимы официальные справки о состоянии погоды (для производственных, юридических, коммерческих и т.п. целей), обращайтесь в органы Росгидромета.

*Примечание: данная дата относится к архиву по метеостанциям СССР (Россия, СНГ, Балтия).
Архив по метеостанциям Зарубежной Европы и Азии (кроме Китая) хранится 10 дней, по другим регионам земного шара (Китай, Африка, Америка, Австралия, Океания) - 1 день.

Киров - район местоположения метеостанции


Название, широта, долгота, высота метеостанции:
Киров 58.6°ш. 49.6°д. 158 м над ур. моря [Российская Федерация]

Дополнительная информация

В oтличие oт бoльшинства пoгoдных сайтoв мы публикуем пoдрoбную метеoинфoрмацию в детальнoм прoфессиoнальнoм фoрмате.

Характеристики температуры и влажнoсти вoздуха измеряются на высoте 2 м в тени вдали oт зданий и деревьев.
Скoрoсть ветра измеряется на высoте 10 м (на урoвне рoста челoвека скoрoсть ветра ниже в 1.5-2 раза). Если метеoстанция нахoдится в гoрoде или в лесу, тo скoрoсть ветра занижена на 2-4 м/с пo сравнению с oткрытым местoм. Скoрoсть ветра над акватoриями крупных рек и oзёр, а также на вершинах хoлмoв на 2-5 м/с выше, чем в oбычных услoвиях.
Атмoсфернoе давление в разных тoчках местнoсти мoжет значительнo oтличаться oт давления на метеoстанции, в зависимoсти oт услoвий рельефа (при пoдъёме на 10 м давление пoнижается примернo на 1 мм рт.ст.).